SCOUT B DEB, 29168

Orbit data source: Space-Track

SCOUT B DEB, 29168 is space debris in LEO originally from a launch on Tue, 10 Aug 1965 UTC launched from the Wallops Island (WLPIS). Debris objects in space refer to the collection of defunct objects orbiting the Earth. Examples of debris include non-operational satellites, rocket bodies, and fragments generated from explosions, collisions, or faulty payload assembly.

Loading next visibility...
Identifier
29168, 1965-063S
Orbit
LEO
Country
Flag of USUS
Related business
Manufacturer
Unknown
Mission
Spacecraft
Bus & Motor
Unknown
Mass
Unknown
Launch date (UTC)
1965-08-10 (61 years ago)
Launch vehicle
Unknown
Launch site
Wallops Island (WLPIS)
Object type
Payload
Rocket body
Debris
Shape & HBR
Unknown shape, 0.1 m
Radar Cross Section
Small (<0.1 m²)

Expand to show TLE details & history
Last TLE update: 21 hours ago

TLE from 21 hours ago
0 SCOUT B DEB
1 29168U 65063S   26067.64089331  .00005478  00000-0  25874-1 0  9992
2 29168  69.3229  54.2090 0374259 214.3205 261.0219 12.55776330617617
Epoch: 2026-03-08T15:22Z
TLE epoch observation values (Epoch: 2026-03-08T15:22:53.181Z)
Latitude
60.8668°
Longitude
154.7774°
Altitude
1,506.417 km
Speed
7.092 km/s
True Right ascension
12h 47m 22s
True Declination
60° 44' 03"
Sunlit
Object was in daylight at epoch
Visualization orbit readout
Latitude
Unknown
Longitude
Unknown
Altitude
Unknown
Speed
Unknown
Apparent Right ascension
Unknown
Apparent Declination
Unknown
Sunlit
N/A
Visualization observer readout
Local Sidereal Time
16:43:33
Azimuth
Unknown
Elevation
Unknown
Doppler factor
Unknown
Orbital elements
Apogee altitude
1,731.216 km
Perigee altitude
1,146.114 km
Semi-major axis
7,816.802 km
Eccentricity
0.03743
Inclination
69.3229°
RAAN
54.209°
Arg. of periapsis
214.3205°
True anomaly
256.82023°
Mean anomaly
261.0219°
Eccentric anomaly
258.91754°
Mean motion
3.14051 °/min
Orbital period
114.63 mins
BSTAR
0.025874
Loading maneuver chart data...
Computing Atmospheric mass density...
Loading historical data...
Loading historical data...
Loading historical data...
Loading historical data...
Loading historical data...
Loading historical data...
Loading historical data...

Documentation

Showing up to 5 results
|